Regional Weather Roundup
Issued by NWS

Home | Current Version | Previous Version | Text Only | Print | Product List | Glossary On
Versions: 1 2 3 4 5 6 7 8 9 10 11 12 13 14 15 16 17 18 19 20 21 22 23 24 25 26 27 28 29 30 31 32 33 34 35 36 37 38 39 40 41 42 43 44 45 46 47 48 49 50
000
ASUS43 KTOP 300808
RWRKS

WEATHER ROUNDUP FOR KANSAS
NATIONAL WEATHER SERVICE GOODLAND KS
200 AM CST FRI JAN 30 2015

NOTE:  "FAIR" INDICATES FEW OR NO CLOUDS BELOW 12,000 FEET WITH NO
SIGNIFICANT WEATHER AND/OR OBSTRUCTIONS TO VISIBILITY.

KSZ001>006-013>018-027>032-041>047-300900-
NORTHWEST KANSAS

CITY           SKY/WX    TMP DP  RH WIND       PRES   REMARKS
GOODLAND       MOCLDY    29  21  72 S9        30.41F
HAYS           PTCLDY    19   9  63 NW5       30.50R
HILL CITY      PTCLDY    18  13  80 SW5       30.49S
RUSSELL        PTCLDY    22  19  89 S5        30.48F
$$

KSZ061>065-074>080-084>089-300900-
SOUTHWEST KANSAS

CITY           SKY/WX    TMP DP  RH WIND       PRES   REMARKS
DODGE CITY     PTCLDY    26  18  71 S3        30.48F
ELKHART          N/A    N/A N/A N/A MISG        N/A
GARDEN CITY    PTCLDY    24  18  77 SW5       30.46F
LIBERAL        CLOUDY    30  19  64 CALM      30.50R
PRATT          PTCLDY    23  19  86 W7        30.51S
$$

KSZ066>073-081>083-090>101-300900-
SOUTHEAST KANSAS

CITY           SKY/WX    TMP DP  RH WIND       PRES   REMARKS
CHANUTE        PTCLDY    28  25  88 NW5       30.54S
COFFEYVILLE    CLEAR     24  22  91 N7        30.54F
HUTCHINSON     PTCLDY    21  16  81 CALM      30.51F
MEDICINE LODGE   N/A     25  22  88 CALM      30.52S
NEWTON         PTCLDY    27  18  69 E6        30.52S
PARSONS        CLEAR     22  20  92 CALM      30.55F
WICHITA INTL   PTCLDY    27  21  78 NW3       30.52S
WICHITA JABRA  CLEAR     28  23  81 CALM      30.52S
WICHITA MCCONL PTCLDY    30  23  75 CALM      30.52S
WINFIELD       PTCLDY    23  19  85 CALM      30.54S
$$

KSZ007>012-019>026-033>040-048>060-102>105-300900-
NORTHEAST KANSAS

CITY           SKY/WX    TMP DP  RH WIND       PRES   REMARKS
CONCORDIA      PTCLDY    17  15  92 E6        30.53S
EMPORIA        CLEAR     23  22  96 NW3       30.53F
LAWRENCE       CLEAR     16  13  88 NW6       30.55S
MANHATTAN      CLEAR     19  17  92 CALM      30.56S
MARYSVILLE     PTCLDY    19  19 100 CALM      30.55S
OLATHE IND     CLEAR     22  19  89 NW7       30.54R
OLATHE EXE     CLEAR     28  23  81 N5        30.52R
SALINA         PTCLDY    25  19  78 CALM      30.53F
TOPEKA BILLARD CLEAR     22  19  89 CALM      30.56R
TOPEKA FORBES  CLEAR     23  17  78 CALM      30.54S
$$



USA.gov is the U.S. government's official web portal to all federal, state and local government web resources and services.